レモン彗星

C/2017 F1 ( Lemmon )

English version
Home page
Updated on September 10, 2020

---------------------------------------------------------------------

・ プロフィール

発見日 2017年3月20日
発見光度 21.7等
発見者 G. J. Leonard (Mount Lemmon)

・ 写真集

・ 軌道要素

Epoch 2017 Nov. 23.0 TT = JDT 2458080.5
T 2017 Dec. 1.00209 TT                                  MPCW
q   4.4997840            (2000.0)            P               Q
z  -0.0009797      Peri.   64.81763     -0.12301059     +0.97200012
 +/-0.0000060      Node   158.74250     +0.58787043     -0.09116773
e   1.0044083      Incl.  146.48105     +0.79954784     +0.21657381
From 81 observations 2017 Mar. 20-2018 Feb. 17, mean residual 0".5.

・ 光度変化

        m1 = 4.0 + 5 logΔ + 20.0 log r(t + 100)

---------------------------------------------------------------------

軌道要素はM.P.E.C. 2018-S50に掲載されたものです。
光度グラフはComet for Windowsで作成したものです。

---------------------------------------------------------------------

Copyright(C) Seiichi Yoshida (comet@aerith.net). All rights reserved.